User: anonymous   Login
Location: Unspecified
(0.0000°N, 0.0000°E)
Time: 07:33:19
(UTC+01:00)
Language:

Cosmos 1898 Rocket - Orbit

View from above orbital plane
View from above orbital plane
View from above satellite
View from above satellite

Ground track
Ground track

The orbit data is extracted from the following two-line orbital elements,

1 18586U 87098B   16041.54456444  .00000149  00000-0  59505-4 0  9990
2 18586  74.0072 122.4314 0022246 294.2058 164.4135 14.36700642476614
Epoch (UTC): 10 February 2016 13:04:10
Eccentricity: 0.0022246
inclination: 74.0072°
perigee height: 753 km
apogee height: 785 km
right ascension of ascending node: 122.4314°
argument of perigee: 294.2058°
revolutions per day: 14.36700642
mean anomaly at epoch: 164.4135°
orbit number at epoch: 47661

The dashed part of the orbit path shows where the satellite is in the earth's shadow,  

DLR